Weather History for Baltimore Martin, MD

Change the Weather History Date:

Saturday, October 29, 2011

  Actual Average Record
Temperature  
Mean Temperature 38 °F -  
Max Temperature 42 °F 59 °F 64 °F (1998)
Min Temperature 35 °F 42 °F 32 °F (1997)
Degree Days  
Heating Degree Days 26    
Moisture  
Dew Point 37 °F    
Average Humidity 90    
Maximum Humidity 100    
Minimum Humidity 81    
Precipitation  
Precipitation 0.12 in - - ()
Sea Level Pressure  
Sea Level Pressure 30.07 in    
Wind  
Wind Speed 7 mph (North)    
Max Wind Speed 16 mph    
Max Gust Speed 26 mph    
Visibility 8 miles    
Events Rain , Snow    
Averages and records for this station are not official NWS values.
T = Trace of Precipitation, MM = Missing Value Source: NWS Daily Summary

Daily Weather History Graph

Daily Weather History Graph

Search for Another Location

Airport:

Trip Planner

Search our weather history database for the weather conditions in past years. The results will help you decide how hot, cold, wet, or windy it might be!

Date:

Astronomy

Oct. 29, 2011 Rise Set
Actual Time 7:29 AM EDT 6:08 PM EDT
Civil Twilight 7:02 AM EDT 6:35 PM EDT
Nautical Twilight 6:30 AM EDT 7:07 PM EDT
Astronomical Twilight 5:59 AM EDT 7:38 PM EDT
Moon 10:48 AM EDT 8:30 PM EDT
Length of Visible Light 11h 33m
Length of Day
10h 38m
Waxing Crescent, 11% of the Moon is Illuminated
Oct 29
Waxing Crescent
Nov 2
First Quarter
Nov 10
Full
Nov 18
Last Quarter
Nov 25
New

Hourly Weather History & Observations

Time (EDT) Temp. Windchill Dew Point Humidity Pressure Visibility Wind Dir Wind Speed Gust Speed Precip Events Conditions
12:12 AM 42.8 °F 39.3 °F 37.4 °F 81% 30.22 in 7.0 mi NE 5.8 mph - 0.01 in Rain Light Rain
12:33 AM 42.8 °F 39.3 °F 37.4 °F 81% 30.22 in 10.0 mi NE 5.8 mph - 0.03 in Rain Rain
12:51 AM 41.0 °F 38.0 °F 37.4 °F 87% 30.21 in 10.0 mi NNE 4.6 mph - 0.04 in Rain Light Rain
1:12 AM 41.0 °F 38.0 °F 37.4 °F 87% 30.20 in 10.0 mi North 4.6 mph - N/A   Drizzle
1:30 AM 41.0 °F 39.0 °F 37.4 °F 87% 30.19 in 10.0 mi NNE 3.5 mph - 0.01 in Rain Light Rain
1:51 AM 41.0 °F 39.0 °F 37.4 °F 87% 30.18 in 10.0 mi North 3.5 mph - 0.01 in Rain Rain
2:09 AM 41.0 °F 37.1 °F 37.4 °F 87% 30.18 in 10.0 mi NNE 5.8 mph - N/A   Light Drizzle
2:27 AM 41.0 °F 39.0 °F 37.4 °F 87% 30.18 in 10.0 mi NNE 3.5 mph - 0.01 in Rain Light Rain
2:48 AM 41.0 °F 36.4 °F 37.4 °F 87% 30.17 in 10.0 mi NNE 6.9 mph - N/A Rain Rain
3:06 AM 41.0 °F 39.0 °F 37.4 °F 87% 30.17 in 10.0 mi NNE 3.5 mph - N/A   Drizzle
3:27 AM 41.0 °F 38.0 °F 37.4 °F 87% 30.15 in 10.0 mi NNE 4.6 mph - N/A   Light Drizzle
3:45 AM 41.0 °F 36.4 °F 37.4 °F 87% 30.14 in 7.0 mi North 6.9 mph - N/A   Drizzle
4:06 AM 41.0 °F 37.1 °F 37.4 °F 87% 30.13 in 10.0 mi North 5.8 mph - N/A Rain Light Rain
4:24 AM 41.0 °F 37.1 °F 37.4 °F 87% 30.11 in 10.0 mi NNE 5.8 mph - N/A Rain Light Rain
4:45 AM 41.0 °F 37.1 °F 37.4 °F 87% 30.11 in 7.0 mi North 5.8 mph - 0.02 in Rain Light Rain
5:03 AM 41.0 °F 37.1 °F 37.4 °F 87% 30.11 in 5.0 mi North 5.8 mph - 0.01 in Rain Rain
5:21 AM 41.0 °F 37.1 °F 37.4 °F 87% 30.10 in 5.0 mi North 5.8 mph - 0.04 in Rain Rain
5:55 AM 41.0 °F 37.1 °F 39.2 °F 93% 30.10 in 4.0 mi North 5.8 mph - N/A Rain Rain
6:55 AM 39.2 °F 33.0 °F 39.2 °F 100% 30.07 in 6.0 mi NNE 9.2 mph - N/A Rain Rain
7:55 AM 39.2 °F 32.5 °F 39.2 °F 100% 30.02 in 5.0 mi NNE 10.4 mph - N/A Rain Rain
8:55 AM 39.2 °F 34.2 °F 39.2 °F 100% 30.00 in 7.0 mi NNE 6.9 mph - N/A Rain Light Rain
9:45 AM 39.2 °F 33.6 °F 39.2 °F 100% 29.99 in 4.0 mi NNE 8.1 mph - N/A Rain Light Rain
10:50 AM 39.2 °F 34.2 °F 39.2 °F 100% 29.99 in 4.0 mi NNW 6.9 mph 17.3 mph N/A Rain Light Rain
11:50 AM 39.2 °F 33.6 °F 39.2 °F 100% 29.92 in 7.0 mi NNE 8.1 mph - N/A Rain Light Rain
12:45 PM 39.2 °F 32.5 °F 37.4 °F 93% 29.87 in 7.0 mi NNE 10.4 mph 21.9 mph N/A Rain Light Rain
1:50 PM 39.2 °F 32.0 °F 37.4 °F 93% 29.89 in 5.0 mi NW 11.5 mph 19.6 mph N/A Rain Rain
2:55 PM 35.6 °F 28.0 °F 35.6 °F 100% 29.92 in 2.5 mi NW 10.4 mph 19.6 mph N/A Snow Light Drizzle
3:59 PM 37.4 °F 28.5 °F 35.6 °F 93% 29.92 in 2.0 mi NNW 15.0 mph 26.5 mph N/A Rain , Snow Light Rain
4:55 PM 37.4 °F 28.9 °F 35.6 °F 93% 29.95 in 3.0 mi NW 13.8 mph 21.9 mph N/A Rain Light Rain
5:50 PM 37.4 °F 29.3 °F 35.6 °F 93% 29.97 in 3.0 mi NW 12.7 mph 23.0 mph N/A Rain Light Rain
7:45 PM 37.4 °F 28.5 °F 35.6 °F 93% 30.01 in 7.0 mi NW 15.0 mph 25.3 mph N/A Rain Light Rain
9:45 PM 37.4 °F 28.2 °F 35.6 °F 93% 30.04 in 7.0 mi NW 16.1 mph 25.3 mph N/A   Mostly Cloudy
10:06 PM 37.4 °F 28.5 °F 33.8 °F 87% 30.05 in 10.0 mi WNW 15.0 mph 23.0 mph N/A   Overcast
10:24 PM 37.4 °F 28.5 °F 33.8 °F 87% 30.05 in 10.0 mi WNW 15.0 mph 23.0 mph N/A   Mostly Cloudy
10:45 PM 37.4 °F 29.8 °F 33.8 °F 87% 30.05 in 10.0 mi WNW 11.5 mph 19.6 mph N/A   Overcast
11:03 PM 37.4 °F 29.3 °F 33.8 °F 87% 30.05 in 10.0 mi WNW 12.7 mph 17.3 mph N/A   Overcast
11:21 PM 37.4 °F 30.3 °F 33.8 °F 87% 30.05 in 10.0 mi WNW 10.4 mph - N/A   Mostly Cloudy
11:42 PM 35.6 °F 27.1 °F 33.8 °F 93% 30.06 in 10.0 mi WNW 12.7 mph - N/A   Clear